This demonstration page uses our WeatherBlox Daily Observations layout. Learn more.

Left ArrowRight Arrow

44.8408, -93.29828

Hourly Observations for March 29, 2022

Temp ( °F °C ) Dew Point ( °F °C ) Humidity (%) Winds ( mph kmh ) Pressure ( in mb ) Visibility ( mi km ) Precip ( " mm )
12:53 am 00:53 Cloudy 35 1.7 11 -11.7 37 37 SE 14 22 30.14 1021 10 16 0.00 0.00
1:53 am 01:53 Cloudy 35 1.7 13 -10.6 40 40 SSE 9 15 30.14 1021 10 16 0.00 0.00
2:53 am 02:53 Cloudy 35 1.7 14 -10 42 42 SE 12 19 30.09 1019 10 16 0.00 0.00
3:53 am 03:53 Cloudy 35 1.7 13 -10.6 40 40 SE 12 19 30.07 1018 10 16 0.00 0.00
4:53 am 04:53 Cloudy 34 1.1 15 -9.4 46 46 SE 15 24 30.04 1017 10 16 0.00 0.00
5:53 am 05:53 Cloudy 34 1.1 15 -9.4 46 46 SE 18 30 30.03 1017 10 16 0.00 0.00
6:53 am 06:53 Cloudy 34 1.1 15 -9.4 46 46 SE 18 30 30.01 1016 10 16 0.00 0.00
7:53 am 07:53 Cloudy 35 1.7 15 -9.4 44 44 SE 18 30 30.00 1016 10 16 0.00 0.00
8:53 am 08:53 Cloudy 35 1.7 14 -10 42 42 SE 24 39 29.97 1015 10 16 0.00 0.00
9:53 am 09:53 Cloudy 36 2.2 14 -10 40 40 SE 20 31 29.96 1015 10 16 0.00 0.00
10:53 am 10:53 Cloudy 37 2.8 15 -9.4 41 41 SE 22 35 29.94 1014 10 16 0.00 0.00
11:53 am 11:53 Cloudy 39 3.9 15 -9.4 38 38 SE 21 33 29.91 1013 10 16 0.00 0.00
12:53 pm 12:53 Cloudy 42 5.6 14 -10 32 32 ESE 25 41 29.86 1011 10 16 0.00 0.00
1:53 pm 13:53 Cloudy 43 6.1 15 -9.4 32 32 ESE 24 39 29.83 1010 10 16 0.00 0.00
2:53 pm 14:53 Cloudy 43 6.1 14 -10 31 31 ESE 22 35 29.80 1009 10 16 0.00 0.00
3:47 pm 15:47 Cloudy 41 5 12 -11 31 31 ESE 23 37 29.76 1008 10 16 0.00 0.00
3:53 pm 15:53 Cloudy 41 5 13 -10.6 32 32 ESE 24 39 29.75 1007 10 16 0.00 0.00
4:53 pm 16:53 Cloudy 41 5 13 -10.6 32 32 SE 26 43 29.72 1006 10 16 0.00 0.00
5:53 pm 17:53 Cloudy 41 5 14 -10 33 33 ESE 20 31 29.69 1006 10 16 0.00 0.00
6:53 pm 18:53 Cloudy 40 4.4 14 -10 35 35 ESE 22 35 29.67 1005 10 16 0.00 0.00
7:53 pm 19:53 Cloudy 39 3.9 18 -7.8 43 43 SE 17 28 29.69 1005 10 16 0.00 0.00
8:53 pm 20:53 Cloudy 39 3.9 18 -7.8 43 43 SE 7 11 29.71 1006 10 16 0.00 0.00
9:37 pm 21:37 Cloudy with Light Rain 37 2.8 23 -5 57 57 SE 15 24 29.68 1005 10 16 0.00 0.00
9:53 pm 21:53 Cloudy with Light Rain 36 2.2 24 -4.4 62 62 SE 18 30 29.65 1004 10 16 0.00 0.00
10:53 pm 22:53 Mostly Cloudy 35 1.7 26 -3.3 70 70 E 14 22 29.62 1003 10 16 0.00 0.00
11:53 pm 23:53 Cloudy 35 1.7 26 -3.3 70 70 ENE 10 17 29.62 1003 10 16 0.00 0.00

Powered by AerisWeather